Location: Arrien
(42.8963°N, 1.0429°E)
Time: 15:28:33
(UTC+00:00)

Tiangong - Pass Details

Date: 21 February 2026
Orbit: 382 x 391 km, 41.5° (Epoch: 5 March)

Event Time Altitude Azimuth Distance (km) Brightness Sun altitude
Rises 19:06:52 0° 270° (W) 2,256 3.5 -17.5°
Reaches altitude 10° 19:09:38 10° 244° (WSW) 1,397 1.6 -18.0°
Maximum altitude 19:11:23 14° 210° (SSW) 1,180 0.6 -18.3°
Enters shadow 19:13:01 10° 178° (S) 1,368 0.6 -18.6°
